Temperature
19 18 18 17 17 16 16 15 15 14 14 14 13 13 13 13 13 13 13 13 13 13 13 13 13 13 13 13 13 14 14 14 15 15 15 15 16 16 16 17 17 17 17
18 18 18 17 17 16 15 15 14 14 14 13 13 13 13 13 13 13 13 13 12 12 12 12 12 13 13 13 13 13 13 14 14 14 15 15 15 16 16 16 17 17 17
19 18 18 17 16 16 15 15 14 14 13 13 13 13 13 13 13 13 13 12 12 12 12 12 12 12 13 13 13 13 13 13 14 14 14 14 15 15 15 16 16 16 17
19 18 18 17 16 16 15 15 14 14 13 13 13 13 13 12 12 12 12 12 12 12 12 12 12 12 12 12 12 13 13 13 13 13 14 14 14 14 15 15 16 16 16
19 18 18 17 16 16 15 14 14 14 13 13 13 13 12 12 12 12 12 12 12 12 12 12 12 12 12 12 12 12 13 13 13 13 13 14 14 14 14 14 15 15 16
19 18 17 17 16 15 15 14 14 14 13 13 13 13 12 12 12 12 12 12 12 12 12 12 12 12 12 12 12 12 12 12 13 13 13 13 13 14 14 14 14 15 15
19 18 17 17 16 15 15 14 14 14 13 13 13 13 12 12 12 12 12 12 12 12 12 12 12 12 12 12 12 12 12 12 12 13 13 13 13 13 13 13 14 14 15
19 18 18 17 16 16 15 14 14 14 13 13 13 13 12 12 12 12 12 12 12 12 12 12 12 12 12 12 12 12 12 12 12 13 13 13 13 13 13 13 13 13 14
19 18 18 17 16 16 15 14 14 14 13 13 13 13 12 12 12 12 12 12 12 12 12 12 12 12 12 12 12 12 12 12 12 12 13 13 13 13 13 13 13 13 13
19 18 18 17 16 16 15 14 14 14 13 13 13 13 12 12 12 12 12 12 12 12 12 12 12 12 12 12 12 12 12 12 12 12 12 12 13 13 13 13 13 13 13
19 19 18 17 16 16 15 15 14 14 13 13 13 13 13 12 12 12 12 12 12 12 12 12 12 12 12 12 12 12 12 12 12 12 12 12 12 13 13 13 13 13 13
20 19 18 17 17 16 15 15 14 14 13 13 13 13 13 13 12 12 12 12 12 12 12 12 12 12 12 12 12 12 12 12 12 12 12 12 12 12 12 13 13 13 13
20 19 18 17 17 16 16 15 14 14 14 13 13 13 13 13 12 12 12 12 12 12 12 12 12 12 12 12 12 12 12 12 12 12 12 12 12 12 12 12 13 13 13
20 19 18 18 17 16 16 15 15 14 14 13 13 13 13 13 13 12 12 12 12 12 12 12 12 12 12 12 12 12 12 12 12 12 12 12 12 12 12 12 12 13 13
20 19 19 18 17 17 16 16 15 15 14 14 13 13 13 13 13 13 13 12 12 12 12 12 12 12 12 12 12 12 12 12 12 12 12 12 12 12 12 12 12 13 13
20 20 19 18 18 17 16 16 15 15 14 14 14 14 13 13 13 13 13 13 13 12 12 12 12 12 12 12 12 12 12 12 12 12 12 12 12 12 12 12 12 12 13
21 20 19 19 18 17 17 16 16 15 15 14 14 14 14 13 13 13 13 13 13 13 13 12 12 12 12 12 12 12 12 12 12 12 12 12 12 12 12 12 12 12 12
21 20 19 19 18 17 17 16 16 15 15 15 14 14 14 14 14 13 13 13 13 13 13 13 12 12 12 12 12 12 12 12 12 12 12 12 12 12 12 12 12 12 12
21 20 20 19 18 17 17 16 16 16 15 15 15 14 14 14 14 14 13 13 13 13 13 13 13 13 12 12 12 12 12 12 12 12 12 12 12 12 12 12 12 12 12
21 20 19 19 18 17 17 16 16 16 16 15 15 15 14 14 14 14 14 13 13 13 13 13 13 13 13 12 12 12 12 12 12 12 12 12 12 12 12 12 12 12 12
20 20 19 18 18 17 17 16 16 16 16 15 15 15 14 14 14 14 14 14 13 13 13 13 13 13 13 13 12 12 12 12 12 12 12 12 12 12 12 12 12 12 12
20 19 19 18 18 17 17 17 16 16 16 15 15 15 15 14 14 14 14 14 14 13 13 13 13 13 13 13 13 12 12 12 12 12 12 12 12 12 12 12 12 12 12
20 19 18 18 18 17 17 16 16 16 16 15 15 15 14 14 14 14 14 14 13 13 13 13 13 13 13 13 13 12 12 12 12 12 12 12 12 12 12 11 11 11 11
19 19 18 18 17 17 17 16 16 16 15 15 15 14 14 14 14 14 14 13 13 13 13 13 13 13 13 13 13 12 12 12 12 12 12 12 11 11 11 11 11 11 11
19 19 18 18 17 17 16 16 16 15 15 15 15 14 14 14 14 13 13 13 13 13 13 13 13 13 13 12 12 12 12 12 12 12 12 12 11 11 11 11 11 11 11
19 18 18 17 17 17 16 16 15 15 15 15 14 14 14 13 13 13 13 12 12 12 12 12 12 12 12 12 12 12 12 12 12 11 11 11 11 11 11 11 11 11 10
Wind_Speed
5 4 5 4 3 1 1 1 1 2 2 2 2 2 3 3 3 3 4 5 5 4 2 2 2 1 1 2 1 1 1 1 0 1 1 2 1 1 2 2 2 2 3
4 5 4 4 3 2 2 1 2 2 1 1 1 2 2 3 3 3 4 5 5 4 3 2 2 2 1 2 1 0 0 1 0 1 1 2 2 1 1 1 2 2 2
9 7 5 5 3 3 4 3 2 2 2 2 1 2 2 3 3 4 4 5 6 5 4 3 2 2 2 2 2 1 1 1 1 1 2 1 1 2 1 1 1 2 2
7 7 6 6 5 5 3 3 3 3 2 2 1 1 2 2 3 4 4 6 5 5 4 3 2 2 2 2 3 2 2 2 1 1 1 1 2 1 1 2 1 1 2
8 8 7 7 5 4 3 3 2 3 2 2 1 1 2 2 4 4 5 5 5 5 4 3 2 2 2 2 2 1 2 2 2 1 1 0 0 1 1 1 1 1 2
7 6 5 4 4 3 2 2 3 3 2 2 2 1 3 4 5 5 5 5 5 4 5 4 3 3 2 2 2 2 2 3 3 2 2 2 2 2 2 2 1 1 2
7 6 6 6 6 5 4 3 3 4 3 3 3 3 3 3 4 4 4 5 4 4 6 5 4 3 2 2 2 2 2 2 3 3 2 2 3 2 2 2 1 1 1
7 8 8 7 6 6 5 4 4 4 4 3 4 3 3 2 3 4 4 4 4 5 5 5 4 4 3 1 1 1 1 1 2 2 2 2 2 3 3 3 2 1 1
8 8 7 7 7 6 6 5 5 5 4 4 4 4 3 3 4 4 4 4 4 4 5 5 4 4 3 1 0 1 1 1 2 2 2 2 2 2 2 2 3 3 2
7 7 7 7 7 6 5 4 4 5 4 3 3 3 3 3 4 4 5 5 5 5 5 5 5 4 3 2 0 1 1 1 1 2 2 2 2 2 2 2 2 3 3
8 8 7 7 6 4 4 4 4 4 4 3 3 3 4 3 3 4 5 5 4 5 5 5 4 4 3 3 1 1 1 1 1 1 2 2 2 2 2 2 2 3 3
7 7 7 5 5 5 5 5 4 4 4 3 3 3 3 3 4 4 5 4 4 5 4 4 4 4 3 3 2 2 1 1 1 2 2 2 2 2 2 2 2 2 3
7 6 6 6 6 6 5 5 5 5 4 3 2 3 3 3 4 4 4 4 4 5 5 4 4 4 4 3 3 2 1 1 1 1 2 2 2 2 2 2 2 2 2
7 7 7 7 7 6 6 6 6 5 4 3 3 3 4 4 4 4 4 4 4 4 5 5 4 4 4 3 3 2 1 1 1 1 1 1 2 3 3 2 3 3 3
7 8 8 8 7 6 6 6 5 5 4 3 3 4 4 3 3 3 4 4 4 4 4 5 5 5 4 3 3 2 1 1 2 2 1 1 1 2 2 2 2 3 3
9 9 9 8 8 8 7 6 6 5 4 4 5 4 3 3 3 4 4 4 4 4 4 4 5 5 4 6 5 3 1 1 1 2 3 2 2 2 2 2 2 3 4
10 10 10 10 9 9 8 8 7 5 4 4 4 4 3 3 4 3 3 4 4 4 4 5 5 5 6 7 6 5 2 1 1 2 2 3 3 3 2 2 2 2 3
10 9 9 8 8 7 7 6 4 4 4 4 4 4 3 4 3 3 4 4 3 3 3 4 5 5 6 7 6 5 3 2 2 2 2 2 3 3 2 2 2 2 3
9 9 8 7 7 7 7 6 5 4 4 4 5 4 4 4 3 3 4 3 3 3 3 4 4 4 6 8 6 4 2 2 3 3 2 2 2 4 3 2 2 3 3
6 7 7 6 6 6 7 7 6 5 5 6 5 4 4 4 4 4 4 2 2 3 4 4 4 4 5 8 7 4 1 1 3 3 3 4 3 4 4 1 2 3 4
7 7 8 7 6 6 8 7 6 6 6 4 4 3 3 4 4 3 2 2 2 3 3 4 4 4 5 7 7 4 0 1 2 2 3 4 6 6 5 3 2 4 4
7 8 8 6 5 7 8 7 6 5 3 3 3 2 2 2 2 2 2 2 2 2 4 4 5 4 4 4 5 5 3 1 1 2 3 3 6 7 6 4 4 5 3
8 7 8 7 5 5 7 7 5 4 4 3 2 1 1 1 1 1 2 1 1 1 2 2 4 5 4 4 6 6 5 3 0 1 3 5 6 6 5 6 6 5 2
8 7 8 8 6 5 5 5 4 5 5 4 2 1 1 0 1 0 0 0 1 1 2 2 3 4 4 4 4 3 3 3 2 2 4 6 7 5 5 5 5 4 2
7 8 9 8 7 6 5 4 4 6 5 4 2 1 1 1 1 1 0 0 0 1 1 1 1 2 4 5 4 2 1 1 1 2 3 4 5 6 5 5 5 4 4
8 8 8 8 7 6 5 4 5 6 6 4 3 2 1 1 1 1 2 3 2 5 5 3 2 1 2 5 6 5 4 5 5 4 4 4 4 4 5 5 5 4 4
Wind_Direction
219 192 185 171 158 169 200 281 313 325 351 351 339 332 323 321 327 328 336 336 332 330 319 304 304 303 283 278 293 300 286 270 302 30 331 328 301 250 238 222 212 213 207
195 192 186 176 181 195 219 247 260 294 315 294 275 263 276 293 293 306 324 333 336 332 319 307 297 286 275 292 283 236 283 275 117 109 74 344 346 324 267 222 214 218 206
197 196 193 196 195 211 218 223 237 268 300 320 336 342 345 337 340 334 330 327 330 327 319 296 283 275 246 252 251 209 183 236 276 139 142 144 241 308 319 259 223 206 207
195 195 197 201 208 218 221 227 242 269 294 323 356 356 345 322 301 303 308 317 326 326 326 316 291 273 255 252 254 217 192 175 216 284 244 196 182 180 313 331 342 232 221
197 199 202 207 213 215 217 230 254 279 297 313 315 333 312 287 296 307 320 327 327 328 330 324 313 295 269 257 254 242 206 186 188 199 210 167 117 173 180 274 320 321 259
198 202 204 201 216 219 227 234 253 275 295 310 307 292 299 309 320 326 330 328 324 324 330 326 321 305 279 257 245 231 212 201 193 199 201 191 191 192 184 208 248 271 276
191 197 202 207 217 224 235 238 246 268 288 300 297 291 289 296 302 308 314 321 323 319 322 327 320 310 287 263 233 221 221 203 196 206 213 211 213 194 182 179 208 246 287
198 206 210 209 217 229 235 234 242 262 279 287 293 294 294 290 292 297 301 303 302 301 307 317 315 311 305 289 250 224 225 206 212 224 216 217 226 203 193 182 174 204 277
207 212 213 212 219 228 231 228 234 254 270 278 289 296 301 299 303 307 304 301 303 309 319 326 330 329 329 309 235 223 232 223 219 225 219 219 231 216 210 197 185 182 216
214 215 213 214 220 225 232 229 230 243 259 273 280 290 295 299 305 314 317 316 317 321 327 335 338 338 343 348 335 241 246 237 246 228 227 230 226 224 211 201 199 197 198
213 212 213 214 217 222 223 227 236 244 260 269 278 298 304 309 317 320 318 319 321 329 332 335 337 340 344 349 353 309 270 258 266 254 234 246 230 216 213 194 189 199 196
211 208 207 206 211 219 222 225 232 240 250 258 271 287 301 317 326 324 324 326 328 332 333 335 342 343 345 345 342 319 314 274 270 271 250 252 238 228 217 196 197 200 201
207 199 198 206 215 219 221 226 231 237 248 250 265 288 302 311 313 316 324 331 333 336 341 345 343 340 337 335 333 323 316 296 272 258 243 248 225 233 224 209 210 214 212
204 199 206 215 218 219 219 224 233 234 234 233 251 271 282 289 295 307 321 328 332 336 338 340 338 334 333 332 332 342 349 352 342 319 275 251 231 229 220 216 216 211 208
207 205 208 212 214 217 222 222 230 231 222 224 245 261 275 285 293 308 316 323 331 333 333 340 344 343 339 338 341 341 346 359 354 347 333 300 290 251 221 216 211 205 206
212 210 208 205 208 211 215 216 223 224 205 218 242 261 277 285 289 297 310 321 326 330 338 341 340 341 339 346 360 3 358 349 347 337 335 329 335 327 325 296 240 214 206
210 206 205 204 206 207 205 209 215 204 198 221 244 256 262 272 281 293 307 311 314 324 330 332 336 331 325 342 358 9 22 15 346 335 337 344 347 350 325 306 304 279 251
206 205 202 202 204 200 198 198 187 184 200 223 243 248 248 261 277 291 293 295 302 307 311 319 325 325 328 345 355 5 22 21 358 344 324 321 324 332 330 321 316 305 288
199 198 193 188 184 188 184 170 175 183 199 226 240 242 235 248 266 277 280 281 293 302 300 302 318 322 322 339 349 355 8 5 346 340 339 327 314 324 337 334 317 314 309
184 177 166 158 168 180 162 161 178 187 215 228 235 236 225 229 246 259 270 270 268 283 300 308 309 309 311 328 342 348 25 349 332 335 336 338 333 329 339 331 307 306 305
167 154 149 159 174 163 154 165 179 209 225 224 226 229 226 230 239 255 259 268 283 301 311 313 314 311 308 321 337 344 32 257 309 324 327 327 337 340 339 333 291 285 297
151 149 150 158 155 153 156 167 197 220 207 192 202 222 233 240 234 240 272 277 292 314 319 325 327 327 322 321 328 338 330 237 227 296 308 320 337 344 345 344 329 322 323
159 154 152 149 148 159 162 174 205 188 159 153 181 219 244 257 261 235 270 302 314 311 317 328 327 325 331 331 336 337 341 339 238 291 329 344 353 356 359 1 357 355 358
165 156 150 153 163 170 173 184 176 154 148 156 179 181 168 324 349 324 253 238 288 289 307 316 316 320 330 333 334 333 340 356 8 5 7 13 18 19 5 1 2 2 349
166 160 162 166 171 167 171 174 159 148 149 158 165 156 155 149 48 35 29 178 265 194 218 278 287 324 330 330 337 350 359 14 30 40 33 28 21 19 13 6 359 356 359
165 163 165 166 166 160 165 168 163 156 152 153 156 154 148 136 116 84 40 34 57 45 55 48 39 1 345 352 17 37 50 50 64 71 46 29 19 12 4 359 354 354 353
Height
1516 1517 1518 1519 1519 1519 1519 1518 1517 1515 1513 1512 1510 1508 1506 1504 1502 1500 1498 1496 1495 1493 1492 1491 1491 1490 1490 1490 1490 1490 1491 1492 1492 1493 1493 1494 1495 1497 1498 1500 1502 1504 1507
1514 1515 1516 1517 1518 1518 1518 1517 1516 1514 1513 1511 1509 1507 1505 1503 1501 1499 1497 1495 1493 1491 1490 1489 1488 1488 1488 1488 1488 1488 1489 1489 1490 1491 1491 1492 1494 1494 1495 1497 1499 1501 1504
1511 1513 1515 1516 1517 1517 1517 1516 1515 1513 1512 1510 1508 1506 1504 1502 1500 1498 1496 1493 1491 1490 1488 1487 1486 1486 1485 1485 1486 1486 1486 1487 1488 1489 1490 1491 1491 1492 1493 1494 1496 1498 1501
1510 1512 1513 1514 1515 1516 1516 1515 1513 1512 1511 1509 1507 1505 1503 1501 1499 1496 1494 1492 1490 1488 1487 1485 1484 1484 1483 1483 1483 1484 1484 1485 1486 1487 1488 1490 1490 1491 1491 1493 1494 1495 1498
1508 1510 1512 1513 1514 1515 1514 1514 1512 1511 1510 1508 1506 1504 1502 1500 1498 1496 1494 1491 1489 1487 1485 1484 1482 1482 1481 1481 1481 1481 1482 1483 1484 1485 1486 1487 1488 1489 1490 1490 1492 1493 1495
1506 1509 1511 1512 1513 1513 1513 1512 1511 1510 1509 1507 1505 1503 1501 1499 1497 1495 1493 1490 1488 1486 1484 1482 1481 1480 1479 1479 1479 1479 1480 1481 1482 1483 1484 1485 1486 1487 1488 1488 1489 1491 1493
1505 1507 1509 1510 1511 1511 1511 1511 1510 1509 1508 1506 1504 1503 1501 1499 1496 1494 1492 1489 1487 1485 1483 1481 1479 1478 1477 1477 1477 1477 1478 1479 1479 1480 1482 1483 1484 1485 1486 1487 1487 1489 1490
1503 1505 1507 1508 1509 1510 1510 1510 1509 1508 1507 1505 1504 1502 1500 1498 1496 1494 1491 1489 1486 1484 1482 1479 1478 1476 1475 1475 1475 1475 1476 1477 1477 1478 1479 1480 1481 1482 1483 1484 1486 1487 1487
1501 1503 1505 1506 1507 1508 1508 1508 1508 1507 1506 1504 1503 1501 1499 1497 1495 1493 1491 1488 1486 1484 1481 1479 1477 1475 1474 1473 1473 1474 1474 1475 1475 1476 1477 1478 1479 1480 1481 1482 1484 1486 1485
1499 1501 1503 1504 1506 1506 1507 1507 1506 1505 1504 1503 1502 1500 1499 1497 1495 1492 1490 1488 1486 1483 1481 1478 1476 1474 1473 1473 1472 1472 1473 1473 1474 1474 1475 1476 1477 1478 1479 1480 1481 1482 1484
1496 1499 1501 1502 1504 1505 1505 1505 1505 1504 1503 1502 1501 1499 1498 1496 1494 1492 1490 1488 1485 1483 1480 1478 1476 1474 1473 1472 1471 1471 1471 1472 1472 1472 1473 1474 1475 1475 1476 1477 1478 1479 1481
1494 1496 1498 1500 1501 1502 1503 1503 1503 1503 1502 1501 1500 1499 1497 1495 1494 1492 1490 1487 1485 1483 1481 1479 1476 1474 1473 1472 1471 1470 1470 1470 1470 1471 1471 1471 1472 1473 1474 1475 1476 1477 1478
1492 1494 1496 1497 1499 1500 1501 1502 1501 1501 1501 1500 1499 1498 1496 1495 1493 1491 1489 1487 1485 1483 1481 1479 1477 1475 1473 1472 1470 1470 1469 1469 1469 1469 1469 1470 1470 1471 1472 1473 1473 1474 1476
1489 1491 1493 1495 1496 1498 1499 1500 1500 1500 1499 1499 1498 1497 1496 1494 1493 1491 1489 1487 1485 1483 1481 1479 1477 1475 1474 1472 1470 1469 1469 1468 1468 1468 1468 1468 1469 1469 1470 1471 1471 1472 1473
1485 1488 1490 1492 1494 1495 1497 1497 1498 1498 1498 1497 1497 1496 1495 1494 1492 1490 1489 1487 1485 1483 1482 1480 1478 1476 1474 1473 1471 1469 1468 1468 1467 1467 1467 1467 1467 1468 1468 1469 1469 1470 1471
1482 1484 1487 1489 1491 1493 1494 1495 1496 1496 1496 1496 1496 1495 1494 1493 1491 1490 1489 1487 1485 1484 1482 1480 1478 1477 1475 1473 1472 1470 1469 1468 1467 1467 1466 1466 1466 1467 1467 1467 1468 1468 1468
1478 1481 1483 1485 1488 1490 1492 1493 1494 1495 1495 1495 1494 1494 1493 1492 1491 1490 1488 1487 1485 1484 1482 1481 1479 1477 1476 1474 1473 1471 1470 1469 1468 1467 1466 1466 1466 1466 1466 1466 1466 1466 1466
1475 1478 1480 1483 1485 1487 1489 1491 1492 1492 1493 1493 1493 1492 1492 1491 1490 1489 1488 1486 1485 1484 1482 1481 1479 1478 1476 1475 1473 1472 1470 1469 1468 1467 1466 1466 1465 1465 1464 1464 1464 1464 1464
1472 1475 1477 1480 1482 1484 1486 1488 1489 1490 1491 1491 1491 1491 1490 1490 1489 1488 1487 1486 1485 1483 1482 1481 1479 1478 1476 1475 1473 1472 1471 1469 1468 1468 1467 1466 1465 1464 1463 1463 1462 1462 1462
1470 1472 1475 1477 1479 1482 1484 1485 1487 1488 1488 1489 1489 1489 1489 1488 1488 1487 1486 1485 1484 1483 1481 1480 1479 1477 1476 1474 1473 1472 1470 1469 1468 1467 1467 1465 1464 1463 1462 1462 1461 1460 1460
1467 1470 1472 1474 1477 1479 1481 1483 1484 1485 1486 1487 1487 1487 1487 1487 1486 1486 1485 1484 1483 1482 1481 1479 1478 1476 1475 1474 1472 1471 1470 1469 1467 1467 1466 1465 1464 1463 1462 1461 1460 1459 1458
1464 1467 1469 1472 1474 1476 1478 1480 1481 1483 1484 1484 1485 1485 1485 1485 1485 1484 1483 1483 1482 1480 1479 1478 1477 1476 1474 1473 1472 1470 1469 1468 1467 1466 1465 1464 1463 1462 1461 1460 1459 1458 1457
1462 1464 1467 1469 1471 1473 1475 1477 1479 1480 1481 1482 1482 1482 1482 1482 1482 1482 1481 1480 1480 1479 1477 1476 1475 1474 1473 1472 1471 1469 1468 1467 1466 1465 1464 1463 1462 1461 1460 1459 1458 1456 1455
1459 1461 1464 1466 1468 1470 1472 1474 1476 1477 1478 1479 1479 1480 1480 1480 1479 1479 1479 1478 1477 1476 1475 1474 1473 1473 1472 1471 1470 1468 1467 1466 1465 1463 1462 1461 1460 1459 1459 1458 1457 1455 1454
1456 1458 1461 1463 1465 1467 1469 1471 1473 1474 1475 1476 1477 1477 1477 1477 1477 1476 1476 1475 1475 1474 1473 1472 1472 1470 1469 1469 1468 1467 1465 1464 1463 1462 1461 1460 1459 1458 1457 1456 1455 1454 1453
1453 1455 1457 1460 1462 1464 1466 1468 1470 1471 1472 1473 1474 1474 1474 1474 1474 1474 1473 1473 1472 1472 1471 1470 1469 1468 1468 1467 1466 1465 1464 1462 1462 1461 1460 1459 1458 1456 1455 1454 1453 1452 1451